Regional Weather Roundup
Issued by NWS Newport/Morehead, NC

Current Version | Previous Version | Graphics & Text | Print | Product List | Glossary Off
Versions: 1 2 3 4 5 6 7 8 9 10 11 12 13 14 15 16 17 18 19 20 21 22 23 24 25 26 27 28 29 30 31 32 33 34 35 36 37 38 39 40 41 42 43 44 45 46 47 48 49 50

000
ASUS42 KMHX 211522
RWRMHX
WEATHER ROUNDUP FOR EASTERN NORTH CAROLINA
NATIONAL WEATHER SERVICE NEWPORT/MOREHEAD CITY NC
1100 AM EDT TUE OCT 21 2014

NOTE: "FAIR" INDICATES FEW OR NO CLOUDS BELOW 12,000 FEET
WITH NO SIGNIFICANT WEATHER AND/OR OBSTRUCTIONS TO VISIBILITY

NCZ015>017-031-032-045>047-102-103-211600-
NORTH COAST

CITY           SKY/WX    TMP DP  RH WIND       PRES   REMARKS
EDENTON        SUNNY     70  56  62 W8        29.90F
ELIZABETH CITY SUNNY     72  55  55 W8        29.89F
KITTY HAWK     SUNNY     69  59  71 W5        29.89S
MANTEO         MOSUNNY   69  56  62 W6        29.90F

$$

NCZ045>047-081-094-103-104-211600-
CENTRAL COAST

CITY           SKY/WX    TMP DP  RH WIND       PRES   REMARKS
FRISCO         SUNNY     69  62  78 W8        29.92S
SWANQUARTER    NOT AVBL

$$

NCZ095-097-098-100-101-211600-
SOUTHERN COAST

CITY           SKY/WX    TMP DP  RH WIND       PRES   REMARKS
BEAUFORT       SUNNY     71  59  65 NW5       29.92F
CEDAR ISLAND   NOT AVBL
JACKSONVILLE   SUNNY     71  55  56 W8        29.92F
PINEY ISLAND   SUNNY     72  59  63 NW8       29.92F
WILMINGTON     SUNNY     73  54  51 W10       29.93F


$$

NCZ011>013-027>030-043-044-078>080-089-090>093-098-211600-
COASTAL PLAIN

CITY           SKY/WX    TMP DP  RH WIND       PRES   REMARKS
AHOSKIE        SUNNY     67  54  62 CALM      29.91S
CLINTON        SUNNY     69  56  63 W6        29.93F
ELIZABETHTOWN  SUNNY     71  55  56 W6        29.93F
GOLDSBORO      SUNNY     69  60  72 CALM      29.90F
GREENVILLE     SUNNY     70  55  60 NW6       29.93F
HAVELOCK       MOSUNNY   73  56  54 NW8       29.93F
KENANSVILLE    SUNNY     71  53  53 SW5       29.93F
KINSTON        SUNNY     70  54  56 W5        29.92F
NEW BERN       SUNNY     74  55  51 NW5       29.93F
RICHLANDS      SUNNY     72  50  46 W7        29.92F
ROCKY MOUNT    SUNNY     67  54  63 W5        29.92F
WASHINGTON     SUNNY     70  53  54 W6        29.91F
WHITEVILLE     SUNNY     71  54  55 W3        29.93F

$$

AMZ130-135-150-152-154-156-158-170-250-252-270-ANZ085-086-088-633-658-670-211600-
MARINE OBSERVATIONS

STATION/POSITION TIME  TEMP    WIND        PRES    WAVE   SWELL
                       AIR SEA DIR/SP/G            HT/PER HT/PER
                 (UTC) (F)     (DEG/KT/KT) (MB)    (FT/S) (FT/S)
CHESAPEAKE LIGHT 1500   67     250/  9/ 10 1012.3
64 E VA BEACH    1500   68 69  260/ 10/ 12 1011.8    3/ 5   2/ 6
DUCK             1500   66 69  250/  6/  8 1011.5
2 E DUCK         1500                        N/A     2/11   2/11
10 NE DUCK       1500      71                N/A     2/11   2/11
OREGON INLET     1500   67 66  230/  6/  7 1012.5
13E OREGON INLT  1500      74                N/A     2/13   2/13
HATTERAS CG      1500   68 71  270/ 10/ 11 1013.4
DIAMOND BUOY     1500   70     280/ 12/ 16 1013.2    3/ 4   2/10
17 S OCRACOKE    1400          VRB 12/ 14  1013.5
CAPE LOOKOUT     1500   70     300/  5/  7 1013.2
BEAUFORT LAB     1500   71 70  320/  3/  7 1012.5
30 SE NEW RIVER  1500   71 76  300/  6/ 10 1013.2    2/ 5   2/ 5
5 SE WRIGHTSVLE  1500   67 73  290/  8/ 10   N/A
225 S CAPE HAT   1420   73 80  170/ 10/ 12 1015.4    3/ 8   3/ 8
41 SE CHARLESTON 1500   73 79  320/ 10/ 14 1014.0    2/ 9   2/ 9

$$


USA.gov is the U.S. government's official web portal to all federal, state and local government web resources and services.